Yankton, SD

4:20 AM CST on January 16, 2018 (GMT -0600)
Gurney Municipal

Weather History for KYKN - September, 2013

Change the Weather History Date:

Sunday, September 22, 2013

  Actual Average Record
Temperature  
Mean Temperature 70 °F -  
Max Temperature 84 °F 71 °F 95 °F (2017)
Min Temperature 57 °F 45 °F 32 °F (1954)
Cooling Degree Days 6    
Growing Degree Days 20 (Base 50)    
Moisture  
Dew Point 50 °F    
Average Humidity 51    
Maximum Humidity 82    
Minimum Humidity 29    
Precipitation  
Precipitation 0.00 in - - ()
Sea Level Pressure  
Sea Level Pressure 29.74 in    
Wind  
Wind Speed 14 mph (SSE)    
Max Wind Speed 31 mph    
Max Gust Speed 40 mph    
Visibility 10 miles    
Events      
Averages and records for this station are not official NWS values.
T = Trace of Precipitation, MM = Missing Value Source: NWS Daily Summary

Daily Weather History Graph

Daily Weather History Graph

Search for Another Location

Airport or City:

Trip Planner

Search our weather history database for the weather conditions in past years. The results will help you decide how hot, cold, wet, or windy it might be!

Date:

Astronomy

Sep. 22, 2013 Rise Set
Actual Time 7:17 AM CDT 7:26 PM CDT
Civil Twilight 6:48 AM CDT 7:54 PM CDT
Nautical Twilight 6:15 AM CDT 8:27 PM CDT
Astronomical Twilight 5:41 AM CDT 9:01 PM CDT
Moon 9:11 PM CDT (9/22) 10:44 AM CDT (9/22)
Length of Visible Light 13h 05m
Length of Day
12h 09m
Waning Gibbous, 88% of the Moon is Illuminated
Sep 22
Waning Gibbous
Sep 26
Last Quarter
Oct 4
New
Oct 11
First Quarter
Oct 18
Full

Hourly Weather History & Observations

Time (CDT) Temp. Dew Point Humidity Pressure Visibility Wind Dir Wind Speed Gust Speed Precip Events Conditions
12:15 AM 62.6 °F 51.8 °F 68% 29.80 in 10.0 mi SE 9.2 mph - N/A   Clear
12:35 AM 64.4 °F 51.8 °F 64% 29.80 in 10.0 mi ESE 5.8 mph - N/A   Clear
12:55 AM 62.6 °F 51.8 °F 68% 29.80 in 10.0 mi SE 8.1 mph - N/A   Clear
1:15 AM 62.6 °F 51.8 °F 68% 29.79 in 10.0 mi SSE 8.1 mph - N/A   Clear
1:35 AM 62.6 °F 51.8 °F 68% 29.79 in 10.0 mi SSE 12.7 mph 19.6 mph N/A   Clear
1:55 AM 62.6 °F 51.8 °F 68% 29.79 in 10.0 mi SSE 11.5 mph 18.4 mph N/A   Clear
2:15 AM 62.6 °F 51.8 °F 68% 29.79 in 10.0 mi SSE 10.4 mph 17.3 mph N/A   Clear
2:35 AM 62.6 °F 51.8 °F 68% 29.79 in 10.0 mi SSE 16.1 mph 23.0 mph N/A   Clear
2:55 AM 60.8 °F 51.8 °F 72% 29.79 in 10.0 mi SSE 8.1 mph - N/A   Clear
3:15 AM 60.8 °F 51.8 °F 72% 29.79 in 10.0 mi SSE 9.2 mph 17.3 mph N/A   Clear
3:35 AM 59.0 °F 51.8 °F 77% 29.78 in 10.0 mi SSE 9.2 mph 16.1 mph N/A   Clear
3:55 AM 60.8 °F 51.8 °F 72% 29.78 in 10.0 mi SE 9.2 mph 17.3 mph N/A   Clear
4:15 AM 60.8 °F 51.8 °F 72% 29.77 in 10.0 mi SSE 8.1 mph - N/A   Clear
4:35 AM 59.0 °F 51.8 °F 77% 29.77 in 10.0 mi SSE 6.9 mph - N/A   Clear
4:55 AM 59.0 °F 51.8 °F 77% 29.77 in 10.0 mi SSE 8.1 mph - N/A   Clear
5:15 AM 57.2 °F 51.8 °F 82% 29.77 in 10.0 mi SSE 9.2 mph - N/A   Clear
5:35 AM 57.2 °F 51.8 °F 82% 29.77 in 10.0 mi SSE 9.2 mph - N/A   Clear
5:55 AM 57.2 °F 51.8 °F 82% 29.77 in 10.0 mi SSE 6.9 mph - N/A   Clear
6:15 AM 57.2 °F 51.8 °F 82% 29.77 in 10.0 mi SSE 8.1 mph - N/A   Clear
6:35 AM 57.2 °F 50.0 °F 77% 29.77 in 10.0 mi SSE 8.1 mph - N/A   Clear
6:55 AM 57.2 °F 50.0 °F 77% 29.76 in 10.0 mi SSE 9.2 mph - N/A   Clear
7:15 AM 60.8 °F 50.0 °F 68% 29.77 in 10.0 mi South 9.2 mph - N/A   Clear
7:35 AM 60.8 °F 50.0 °F 68% 29.77 in 5.0 mi South 9.2 mph - N/A   Clear
7:55 AM 62.6 °F 50.0 °F 63% 29.77 in 9.0 mi South 8.1 mph - N/A   Clear
8:15 AM 62.6 °F 50.0 °F 63% 29.77 in 10.0 mi South 9.2 mph - N/A   Clear
8:35 AM 64.4 °F 50.0 °F 59% 29.77 in 10.0 mi South 10.4 mph - N/A   Clear
8:55 AM 66.2 °F 50.0 °F 56% 29.77 in 10.0 mi South 12.7 mph - N/A   Clear
9:15 AM 68.0 °F 50.0 °F 52% 29.77 in 10.0 mi South 16.1 mph - N/A   Clear
9:35 AM 69.8 °F 50.0 °F 49% 29.77 in 10.0 mi South 16.1 mph - N/A   Clear
9:55 AM 71.6 °F 48.2 °F 43% 29.77 in 10.0 mi South 18.4 mph 25.3 mph N/A   Clear
10:15 AM 73.4 °F 48.2 °F 41% 29.77 in 10.0 mi South 24.2 mph 29.9 mph N/A   Clear
10:35 AM 75.2 °F 50.0 °F 41% 29.77 in 10.0 mi South 21.9 mph 28.8 mph N/A   Clear
10:55 AM 75.2 °F 48.2 °F 38% 29.77 in 10.0 mi South 18.4 mph 28.8 mph N/A   Clear
11:15 AM 78.8 °F 48.2 °F 34% 29.77 in 10.0 mi South 23.0 mph 28.8 mph N/A   Clear
11:35 AM 78.8 °F 48.2 °F 34% 29.76 in 10.0 mi South 25.3 mph 32.2 mph N/A   Clear
11:55 AM 80.6 °F 48.2 °F 32% 29.76 in 10.0 mi South 20.7 mph 34.5 mph N/A   Clear
12:15 PM 80.6 °F 48.2 °F 32% 29.75 in 10.0 mi South 25.3 mph 34.5 mph N/A   Clear
12:35 PM 80.6 °F 48.2 °F 32% 29.74 in 10.0 mi South 29.9 mph 38.0 mph N/A   Clear
12:55 PM 82.4 °F 48.2 °F 30% 29.73 in 10.0 mi South 31.1 mph 39.1 mph N/A   Clear
1:15 PM 82.4 °F 48.2 °F 30% 29.73 in 10.0 mi South 31.1 mph 40.3 mph N/A   Clear
1:35 PM 82.4 °F 48.2 °F 30% 29.73 in 10.0 mi South 20.7 mph 32.2 mph N/A   Clear
1:55 PM 82.4 °F 48.2 °F 30% 29.72 in 10.0 mi South 24.2 mph 31.1 mph N/A   Clear
2:15 PM 82.4 °F 48.2 °F 30% 29.72 in 10.0 mi South 23.0 mph 29.9 mph N/A   Clear
2:35 PM 84.2 °F 48.2 °F 29% 29.71 in 10.0 mi South 23.0 mph 32.2 mph N/A   Clear
2:55 PM 84.2 °F 51.8 °F 33% 29.71 in 10.0 mi South 23.0 mph 28.8 mph N/A   Clear
3:15 PM 84.2 °F 51.8 °F 33% 29.70 in 10.0 mi SSE 25.3 mph 34.5 mph N/A   Clear
3:35 PM 84.2 °F 50.0 °F 30% 29.70 in 10.0 mi South 24.2 mph 29.9 mph N/A   Clear
3:55 PM 84.2 °F 50.0 °F 30% 29.69 in 10.0 mi South 21.9 mph 29.9 mph N/A   Clear
4:15 PM 84.2 °F 50.0 °F 30% 29.69 in 10.0 mi SSE 21.9 mph 27.6 mph N/A   Clear
4:35 PM 82.4 °F 48.2 °F 30% 29.69 in 10.0 mi SSE 20.7 mph 33.4 mph N/A   Clear
4:55 PM 82.4 °F 50.0 °F 32% 29.69 in 10.0 mi SSE 23.0 mph 32.2 mph N/A   Clear
5:15 PM 82.4 °F 50.0 °F 32% 29.68 in 10.0 mi SSE 23.0 mph 27.6 mph N/A   Clear
5:35 PM 82.4 °F 48.2 °F 30% 29.68 in 10.0 mi SSE 24.2 mph 29.9 mph N/A   Clear
5:55 PM 80.6 °F 50.0 °F 34% 29.68 in 10.0 mi SSE 20.7 mph 27.6 mph N/A   Clear
6:15 PM 80.6 °F 50.0 °F 34% 29.69 in 10.0 mi SSE 21.9 mph 29.9 mph N/A   Clear
6:35 PM 78.8 °F 50.0 °F 36% 29.69 in 10.0 mi SSE 18.4 mph 25.3 mph N/A   Clear
6:55 PM 78.8 °F 50.0 °F 36% 29.70 in 10.0 mi SSE 17.3 mph 24.2 mph N/A   Clear
7:15 PM 75.2 °F 50.0 °F 41% 29.70 in 10.0 mi SSE 15.0 mph 20.7 mph N/A   Clear
7:35 PM 73.4 °F 50.0 °F 44% 29.70 in 10.0 mi SE 11.5 mph 17.3 mph N/A   Clear
7:55 PM 73.4 °F 50.0 °F 44% 29.71 in 10.0 mi SE 11.5 mph - N/A   Clear
8:15 PM 71.6 °F 50.0 °F 46% 29.71 in 10.0 mi SE 12.7 mph 17.3 mph N/A   Clear
8:35 PM 71.6 °F 48.2 °F 43% 29.72 in 10.0 mi SE 12.7 mph - N/A   Clear
8:55 PM 71.6 °F 48.2 °F 43% 29.72 in 10.0 mi SE 15.0 mph - N/A   Clear
9:15 PM 69.8 °F 48.2 °F 46% 29.72 in 10.0 mi SE 16.1 mph 23.0 mph N/A   Clear
9:35 PM 69.8 °F 48.2 °F 46% 29.72 in 10.0 mi SE 17.3 mph 21.9 mph N/A   Clear
9:55 PM 69.8 °F 48.2 °F 46% 29.72 in 10.0 mi SE 19.6 mph 24.2 mph N/A   Clear
10:15 PM 68.0 °F 48.2 °F 49% 29.73 in 10.0 mi SE 18.4 mph 24.2 mph N/A   Clear
10:35 PM 66.2 °F 48.2 °F 52% 29.73 in 10.0 mi SE 18.4 mph 23.0 mph N/A   Clear
10:55 PM 66.2 °F 48.2 °F 52% 29.73 in 10.0 mi SE 19.6 mph 23.0 mph N/A   Clear
11:15 PM 66.2 °F 48.2 °F 52% 29.74 in 10.0 mi SE 17.3 mph 23.0 mph N/A   Clear
11:35 PM 64.4 °F 48.2 °F 56% 29.75 in 10.0 mi SE 15.0 mph - N/A   Clear
11:55 PM 64.4 °F 48.2 °F 56% 29.75 in 10.0 mi SE 13.8 mph 21.9 mph N/A   Clear